Regional Weather Roundup
Issued by NWS

Home | Current Version | Previous Version | Graphics & Text | Print | Product List | Glossary On
Versions: 1 2 3 4 5 6 7 8 9 10 11 12 13 14 15 16 17 18 19 20 21 22 23 24 25 26 27 28 29 30 31 32 33 34 35 36 37 38 39 40 41 42 43 44 45 46 47 48 49 50
000
ASUS43 KMKX 220925
RWRWI

WISCONSIN REGIONAL WEATHER ROUNDUP
NATIONAL WEATHER SERVICE MILWAUKEE/SULLIVAN WI
300 AM CST SAT NOV 22 2014

NOTE: "FAIR" INDICATES FEW OR NO CLOUDS BELOW 12,000 FEET WITH NO
SIGNIFICANT WEATHER AND/OR OBSTRUCTIONS TO VISIBILITY.

WIZ001-002-006>008-014>016-023>028-221000-
NORTHWEST WISCONSIN

CITY           SKY/WX    TMP DP  RH WIND       PRES   REMARKS
SUPERIOR ARPT  MOCLDY    31  26  81 SW13      29.74F WCI  21
ASHLAND        CLOUDY    33  27  78 S16G24    29.76F WCI  23
HAYWARD        CLOUDY    32  27  81 SW15      29.79F WCI  22
SIREN          MOCLDY    34  30  85 SW12G17   29.79F WCI  26
CUMBERLAND     CLOUDY    32  30  93 SW14      29.81F FOG     WCI  22
RICE LAKE      CLOUDY    33  30  88 S9        29.84F FOG     WCI  26
CHETEK         CLOUDY    33  30  90 S8        29.84F WCI  25
LADYSMITH      CLOUDY    32  28  87 S9        29.85F WCI  24
EAU CLAIRE     CLOUDY    33  28  81 SW13      29.86F WCI  24
MENOMONIE      CLOUDY    34  30  85 S9        29.87S FOG     WCI  27
NEW RICHMOND   CLOUDY    34  32  91 SW12      29.83F FOG     WCI  26
OSCEOLA        CLOUDY    35  33  92 S8        29.84F WCI  28
$$

WIZ003>005-009-010-017-018-221000-
NORTH CENTRAL WISCONSIN

CITY           SKY/WX    TMP DP  RH WIND       PRES   REMARKS
MANITOWISH WTR CLOUDY    29  26  90 SW13      29.78F WCI  18
ARBOR VITAE    CLOUDY    32  28  87 SW8G17    29.79F WCI  25
WOODRUFF       CLOUDY    32  28  87 SW8G17    29.79F WCI  25
RHINELANDER    CLOUDY    27  22  81 SW13      29.83F WCI  16
EAGLE RIVER    CLOUDY    28  23  81 SW13G23   29.79F WCI  18
LAND O LAKES   CLOUDY    29  25  84 SW12G21   29.77F WCI  20
PHILLIPS       CLOUDY    29  26  88 SW12      29.81F WCI  19
TOMAHAWK       CLOUDY    29  24  83 SW3       29.84F
MEDFORD        CLOUDY    30  26  86 S16       29.84F WCI  18
MERRILL        CLOUDY    30  24  80 SW12      29.86F WCI  20
$$

WIZ029-030-035-036-043>047-221000-
CENTRAL WISCONSIN

CITY           SKY/WX    TMP DP  RH WIND       PRES   REMARKS
WAUSAU         CLOUDY    30  24  78 SW10      29.87F WCI  21
MOSINEE        CLOUDY    30  27  86 SW13      29.90F WCI  20
MARSHFIELD     CLOUDY    32  26  78 SW13      29.89F WCI  22
STEVENS POINT  CLOUDY    30  23  74 SW8G16    29.91F WCI  23
WAUPACA        CLOUDY    35  24  65 SW14      29.94F WCI  25
WAUTOMA        CLOUDY    33  25  73 SW12      29.96F WCI  24
WISC RAPIDS    CLOUDY    32  23  69 SW13      29.93F WCI  22
CAMP DOUGLAS   CLOUDY    32  32 100 SW8       29.93F WCI  25
$$

WIZ011>013-019>022-031-037>040-048>050-221000-
NORTHEAST WISCONSIN

CITY           SKY/WX    TMP DP  RH WIND       PRES   REMARKS
ANTIGO         CLOUDY    28  24  83 SW17      29.86F WCI  16
SHAWANO        CLOUDY    34  23  64 SW8       29.93F WCI  27
OCONTO         CLOUDY    32  21  65 SW9G17    29.92F WCI  24
STURGEON BAY   CLOUDY    34  21  60 SW18G24   29.92F WCI  23
GREEN BAY      CLOUDY    33  22  63 SW13G23   29.95F WCI  24
MANITOWOC      CLOUDY    35  25  66 SW10G24   29.98F WCI  27
APPLETON       CLOUDY    32  23  69 SW17      29.95F WCI  21
CLINTONVILLE   CLOUDY    32  23  69 SW12      29.93F WCI  23
OSHKOSH        CLOUDY    32  23  69 SW17G24   29.97F WCI  21
$$

WIZ032>034-041-042-053>061-221000-
SOUTHWEST WISCONSIN

CITY           SKY/WX    TMP DP  RH WIND       PRES   REMARKS
LA CROSSE      CLOUDY    35  29  78 S9        29.95F WCI  28
SPARTA         CLOUDY    33  28  80 SW7       29.95F WCI  27
VIROQUA        CLOUDY    31  31 100 S14G20    29.94F WCI  21
BOSCOBEL       CLOUDY    34  28  79 SW6       30.00F WCI  29
PRAIRIE DU CHI CLOUDY    34  29  82 S5        30.00F WCI  30
PLATTEVILLE    CLOUDY    32  31  94 CALM      30.01F
$$

WIZ056-057-062-063-064-067-068-221000-
SOUTH CENTRAL WISCONSIN

CITY           SKY/WX    TMP DP  RH WIND       PRES   REMARKS
REEDSBURG      CLOUDY    31  28  86 SW10G16   29.97F WCI  23
BARABOO/DELLS  CLOUDY    32  27  82 SW10G20   29.96F WCI  23
LONE ROCK      CLOUDY    36  27  69 SW7       30.01F WCI  30
MINERAL POINT  CLOUDY    32  30  93 S13       29.99F FOG     WCI  22
MADISON        CLOUDY    32  27  81 S13G21    30.01F WCI  22
MIDDLETON      CLOUDY    32  28  85 S14       30.00F WCI  22
WATERTOWN      MIX PCPN  31  29  92 S14       30.01F WCI  21
MONROE         MIX PCPN  32  30  93 S17       30.01F WCI  21
JANESVILLE     CLOUDY    32  32 100 S8        30.05F WCI  25
$$

WIZ051-052-058>065-066-070>072-221000-
SOUTHEAST WISCONSIN

CITY           SKY/WX    TMP DP  RH WIND       PRES   REMARKS
MILWAUKEE      FRZ RAIN  33  27  78 SW18G24   30.03F WCI  22
WAUKESHA       CLOUDY    30  27  86 SW10G17   30.03F WCI  21
MILWAUKEE/TIMM CLOUDY    32  27  80 SW15G22   30.04F WCI  22
RACINE         LGT RAIN  33  28  81 SW16G23   30.06F WCI  23
BURLINGTON     CLOUDY    31  27  87 S14       30.05F WCI  20
KENOSHA        LGT RAIN  33  29  85 SW10      30.05F WCI  25
FOND DU LAC    CLOUDY    31  23  72 SW20G28   29.98F WCI  19
SHEBOYGAN      CLOUDY    34  23  64 SW15      29.99F WCI  24
WEST BEND      CLOUDY    32  27  80 SW14G23   30.00F WCI  22
JUNEAU         CLOUDY    30  25  80 S15       30.02F WCI  19
$$

LSZ147-162-221000-
LAKE SUPERIOR

STATION/POSITION TIME  TEMP    WIND        PRES    WAVE
                       AIR SEA DIR/SP/G            HT/PER
                 (UTC) (F)     (DEG/KT/KT) (MB)    (FT/S)
DEVILS ISLAND    0900   35     230/ 21/ 27 1006.8F
PORT WING        0840   33     210/ 10/ 19 1007.1F
SAXON HARBOR     0800   33     200/  7/ 17 1008.1R
$$

LMZ867-665-643>646-221000-
LAKE MICHIGAN

STATION/POSITION TIME  TEMP    WIND        PRES    WAVE
                       AIR SEA DIR/SP/G            HT/PER
                 (UTC) (F)     (DEG/KT/KT) (MB)    (FT/S)
CHAMBERS ISLAND  0800   33     190/ 12/ 28 1013.5F
N MID LAKE BUOY  0850   38 42  220/ 31/ 37 1012.9F  15/ 9
NORTHPORT PIER   0815   32     180/  6/ 17 1013.5F
SISTER BAY       0843          210/ 18/ 26   N/A
ALGOMA LAKESHORE 0813          250/ 12/ 13   N/A
KEWAUNEE LAKESHO 0900   34     220/ 11/ 17 1013.6F
SHEBOYGAN LAKESH 0900   35 36  220/ 19/ 23 1016.6F
PORT WASHINGTON  0800   35     220/  8/ 11 1017.9
ATWATER BUOY     0900   36      40/  2/  8 1018.6F
MILWAUKEE LAKESH 0900   33     230/ 19/ 23   N/A
S MID LAKE BUOY  0850   40 43  200/ 23/ 29 1019.2F   7/ 7
KENOSHA   LAKESH 0900   34     220/ 14/ 20 1017.9F
$$

TC  - TEMPERATURE IN CELSIUS
VSB - VISIBILITY IN STATUTE MILES
WCI - WIND CHILL INDEX
HX  - HEAT INDEX




USA.gov is the U.S. government's official web portal to all federal, state and local government web resources and services.